sat.trackr.live / text

‹ back to catalog

STARLINK-35905

NORAD 67048 · 2025-294U

PAYLOAD ACTIVE UNKNOWN

§ Identity

Operator
Country
US
Launch date
2025-12-11
Launch site
AFETR
Launch vehicle
Mass (kg)
RCS (m²)

Purposes: comms

External: N2YO · Heavens-Above · Gunter

§ Orbital elements

Epoch: 2026-05-24T21:35:01.171104Z

Period
94.27 min
Inclination
43.0021°
Eccentricity
0.0001872
Mean motion
15.27592850 rev/d
Perigee alt
481.7 km
Apogee alt
484.3 km
Semi-major
6,861.1 km
B*
4.3641e-4
RAAN
327.7620°
Arg perigee
274.0638°
Mean anomaly
85.9999°
Rev number
2,645

§ Raw data

STARLINK-359051 67048U 25294U   26144.89931911  .00011771  00000+0  43641-3 0  99922 67048  43.0021 327.7620 0001872 274.0638  85.9999 15.27592850 26452

JSON: /api/v1/satellites/67048 · /tle

For live sub-satellite position, see the globe view (requires WebGL).

§ Visibility from observer

Set your observer location to see the next 7 days of passes ≥ 10°. The values pass through the URL so the page stays shareable.

No JS? Fill the form by hand. The geolocation button needs JavaScript.